Tracking 30056 objects as of 10-Dec-2024
HD Live streaming from Space Station
objects crossing your sky now

ONEWEB-0039

Track ONEWEB-0039 now!
10-day predictions
ONEWEB-0039 is classified as:


NORAD ID: 45146
Int'l Code: 2020-008R
Perigee: 1,227.4 km
Apogee: 1,230.3 km
Inclination: 87.9 °
Period: 109.9 minutes
Semi major axis: 7599 km
RCS: Unknown
Launch date: February 6, 2020
Source: United Kingdom (UK)
Launch site: TYURATAM MISSILE AND SPACE COMPLEX (TTMTR)
Your satellite tracking list
Your tracking list is empty




NASA's NSSDC Master Catalog

Two Line Element Set (TLE):
1 45146U 20008R   24345.46429620  .00000090  00000-0  22078-3 0  9992
2 45146  87.8884 146.5428 0001867  77.4685 282.6651 13.10370541236426
Source of the keplerian elements: AFSPC